Temperature
19 19 19 20 20 20 20 20 20 20 20 20 20 20 20 20 20 20 20 20 20 20 20 20 20 20 20 19 19 19 19 20 20 20 20 20 19 19 19 19 18 18 18
20 20 20 20 20 20 20 20 20 20 20 20 20 20 20 20 20 20 20 20 20 20 20 20 20 20 20 19 19 19 19 20 20 20 20 20 19 19 19 19 18 18 18
20 20 20 20 20 20 20 20 20 20 20 20 20 20 20 20 20 20 20 20 20 20 20 20 20 19 19 19 19 19 19 20 20 20 20 20 20 19 19 19 19 18 18
20 20 20 20 20 20 20 20 20 20 20 20 20 20 20 20 20 20 20 20 20 20 20 20 19 19 19 19 19 19 19 20 20 20 20 20 19 19 19 19 19 18 18
20 20 20 20 20 20 20 20 20 19 19 20 20 20 20 20 20 20 20 20 20 20 20 19 19 19 19 19 19 19 19 19 19 19 19 19 19 19 19 19 19 18 18
21 20 20 20 20 20 20 20 19 19 19 19 19 19 20 20 20 20 20 20 20 19 19 19 19 19 19 19 19 19 19 19 19 19 19 19 19 19 19 19 19 18 18
21 20 20 20 20 20 20 20 19 19 19 19 19 19 19 19 19 19 19 19 19 19 19 19 19 19 19 19 18 18 19 19 19 19 19 19 19 19 19 19 19 18 18
21 21 20 20 20 20 20 20 19 19 19 19 19 19 19 19 19 19 19 19 19 19 19 19 19 19 19 19 18 18 18 18 19 18 18 19 19 19 19 19 18 18 18
21 21 21 20 20 20 20 20 19 19 19 19 19 19 19 19 19 19 19 19 19 19 19 19 19 19 19 19 18 18 18 18 18 18 18 18 18 18 18 18 18 18 18
21 21 21 21 20 20 20 20 19 19 19 19 19 19 19 19 19 19 19 19 19 19 19 19 19 19 19 19 18 18 18 18 18 18 18 18 18 18 18 18 18 18 18
21 21 21 21 21 20 20 20 19 19 19 19 19 19 19 19 19 18 18 19 19 19 19 19 19 19 19 19 18 18 18 18 18 18 18 18 18 18 18 18 18 18 18
21 21 21 21 21 20 20 20 20 19 19 19 19 19 19 18 18 18 18 19 19 19 19 19 19 19 19 19 18 18 18 18 18 18 18 18 18 18 18 18 18 18 18
22 21 21 21 21 21 20 20 20 19 19 19 19 19 18 18 18 18 18 19 19 19 19 19 19 19 19 19 18 18 18 18 18 18 18 18 18 18 18 18 18 18 18
22 22 21 21 21 21 20 20 20 19 19 19 19 19 18 18 18 18 18 19 19 19 19 19 18 18 18 18 18 18 18 18 18 18 18 18 18 18 18 18 18 18 18
22 22 22 21 21 21 21 20 20 20 19 19 19 19 18 18 18 18 18 18 18 19 19 18 18 18 18 18 18 18 18 18 18 18 18 18 18 18 18 18 18 18 18
22 22 22 22 21 21 21 20 20 20 20 19 19 19 18 18 18 18 18 18 18 18 18 18 18 18 18 18 18 18 18 18 18 18 18 18 18 18 18 18 18 18 18
21 21 21 21 21 21 21 21 20 20 20 19 19 19 18 18 18 18 18 18 18 18 18 18 18 18 18 18 18 18 18 18 18 18 18 18 18 18 18 18 17 17 17
20 21 21 21 21 21 21 21 20 20 20 20 19 19 19 18 18 18 18 18 18 18 18 18 18 18 18 18 18 18 18 18 18 18 18 17 17 18 18 18 18 17 17
20 20 20 20 20 20 21 21 20 20 20 20 19 19 19 19 18 18 18 19 18 18 18 18 18 18 18 18 18 18 18 18 18 18 18 17 17 17 18 18 18 18 18
19 19 19 20 20 20 20 20 20 20 20 20 19 19 19 19 18 19 19 19 18 18 18 18 18 18 18 18 18 18 18 18 18 18 18 17 17 17 17 17 17 18 18
18 19 19 19 19 20 20 20 20 20 20 19 19 19 19 19 19 19 19 19 18 18 18 18 18 18 18 18 18 18 18 18 18 18 18 17 17 17 17 17 17 17 17
18 18 18 18 19 19 19 19 19 20 20 20 19 19 19 19 19 19 19 19 18 18 18 18 18 18 18 18 17 17 17 17 18 18 18 17 17 17 17 17 17 17 17
17 17 17 17 18 19 19 19 19 19 19 19 19 19 19 18 18 18 18 18 18 18 18 18 18 18 18 17 17 17 17 17 17 18 18 17 17 17 17 17 17 17 17
15 16 16 17 17 18 18 19 19 19 19 19 19 19 19 18 18 18 18 18 18 18 18 18 17 17 17 17 17 17 17 16 16 17 17 17 17 17 17 17 17 17 17
15 15 15 16 16 16 17 18 18 18 19 19 19 18 18 18 18 18 17 17 17 17 17 17 17 17 17 17 16 16 16 16 16 16 16 17 17 17 17 17 17 17 17
14 14 14 15 15 16 16 16 17 18 18 18 18 18 18 17 17 17 17 17 17 17 17 17 17 17 17 16 16 16 16 16 16 16 16 16 16 17 17 17 17 17 17
Wind_Speed
8 11 17 16 16 17 17 16 16 15 15 14 14 14 13 13 12 12 11 11 11 11 11 10 10 10 10 10 10 10 10 11 11 11 11 10 10 11 11 10 9 7 9
11 15 18 17 17 16 16 16 16 15 15 14 14 13 13 13 12 11 11 10 10 10 10 10 9 9 9 9 9 9 10 10 10 10 10 10 11 11 11 10 9 8 8
15 16 18 18 17 16 16 16 15 15 15 14 13 13 13 12 11 11 10 10 9 9 9 9 9 9 8 8 8 8 9 9 9 8 8 8 9 11 11 10 9 9 8
16 17 17 18 17 16 16 15 15 15 14 14 13 12 12 11 11 10 10 9 9 9 9 8 8 8 7 7 7 7 7 8 7 7 6 6 7 10 10 9 8 9 8
15 16 18 19 17 16 15 15 15 15 14 14 13 12 12 11 11 10 10 9 9 9 8 8 7 7 6 6 5 6 6 7 7 7 7 7 7 8 8 8 7 8 8
13 16 18 18 17 16 15 14 15 15 15 13 12 12 11 11 10 10 10 9 9 9 8 7 6 5 5 5 4 4 5 6 6 7 7 7 5 6 7 6 6 7 7
13 15 17 18 17 16 15 14 14 15 14 13 12 12 11 10 10 10 9 9 8 8 7 6 5 5 5 4 4 4 4 4 6 6 6 6 5 6 6 5 5 6 7
15 15 16 18 17 15 15 14 14 15 14 13 13 12 11 11 10 10 9 8 7 6 6 5 5 5 5 4 4 3 3 3 6 7 7 5 6 6 5 4 5 5 6
14 13 13 15 16 15 15 14 14 15 14 14 13 12 11 11 11 10 10 9 7 6 5 5 5 4 4 4 3 3 4 4 8 8 6 5 6 6 6 5 4 4 5
12 12 11 13 14 14 14 15 15 15 15 14 14 13 12 12 12 11 11 9 8 6 6 5 4 4 3 2 1 1 4 5 9 7 6 6 7 6 6 5 4 4 5
12 11 11 11 12 14 14 15 15 15 15 15 14 14 13 11 11 12 12 11 9 8 7 6 5 4 4 4 4 2 4 6 9 7 6 7 8 7 6 6 5 4 4
15 14 12 12 12 13 14 14 13 14 14 14 14 14 13 12 11 11 12 12 11 9 8 7 7 6 6 5 6 3 3 6 9 8 8 9 8 7 7 6 5 4 4
17 16 15 14 12 12 9 11 11 11 12 13 14 14 13 12 11 11 10 11 11 10 8 7 7 7 6 6 5 3 2 6 9 8 9 9 8 8 7 6 5 4 3
16 17 16 16 13 13 11 10 10 9 9 10 13 15 12 7 7 7 8 9 9 9 7 7 6 8 8 8 8 5 4 7 9 9 9 9 8 8 7 6 5 4 3
15 17 17 17 16 13 10 9 10 9 10 12 13 15 14 8 5 6 7 8 10 10 8 6 6 6 7 8 7 7 7 9 10 10 9 10 8 7 7 6 6 5 4
6 9 13 17 17 15 13 11 9 10 11 12 12 15 16 12 8 7 6 6 8 10 10 7 6 4 4 3 4 6 9 11 11 10 10 9 8 7 7 7 7 6 6
3 1 4 10 13 15 14 14 10 11 12 10 12 15 16 15 12 10 8 8 8 12 10 6 4 4 3 3 5 5 6 9 10 10 10 9 8 7 7 7 7 7 6
8 6 3 3 7 10 11 11 9 10 10 10 13 14 16 16 15 11 8 8 10 10 6 4 3 4 3 3 3 2 3 5 7 10 10 9 9 8 8 8 8 7 7
10 9 8 6 3 5 8 8 8 8 9 10 11 11 14 15 15 10 7 7 10 6 4 5 3 3 3 3 2 2 2 3 4 7 7 10 11 10 9 9 9 8 8
10 10 10 9 8 5 3 4 4 6 7 7 8 9 11 12 13 10 6 7 8 6 5 4 4 3 3 3 2 1 1 2 2 4 6 9 11 12 12 10 10 10 9
12 11 10 10 9 7 3 2 4 6 7 6 6 8 9 9 11 9 6 7 7 7 7 7 4 4 2 2 3 2 3 2 2 3 4 5 7 12 12 12 11 10 10
13 11 10 9 9 7 5 4 3 4 4 5 5 5 7 7 9 9 8 7 7 6 6 6 5 4 2 3 4 2 2 4 3 2 2 5 7 8 9 13 12 12 11
13 12 11 9 9 9 8 4 2 1 1 2 4 5 5 7 8 7 6 7 7 7 7 6 5 6 4 2 2 4 4 4 3 4 2 2 5 6 6 9 12 14 13
12 11 10 9 9 9 8 5 4 4 6 7 5 5 5 6 7 8 7 6 6 5 6 5 5 4 5 3 2 2 3 4 3 2 3 2 2 5 6 6 9 13 15
11 11 10 10 9 9 9 7 4 4 5 4 4 6 5 4 4 5 6 5 5 4 5 5 4 4 4 4 4 3 2 2 2 3 3 3 3 2 4 5 5 10 16
10 10 10 10 10 10 9 7 5 3 3 4 5 6 5 4 4 5 5 5 5 4 5 5 5 5 4 4 4 4 3 3 3 4 5 4 3 3 2 3 4 6 13
Wind_Direction
154 162 151 143 135 132 130 128 125 121 117 112 108 104 102 98 93 90 89 88 86 85 85 89 93 97 101 102 101 98 94 87 80 74 71 69 65 60 64 83 86 90 99
152 156 149 143 138 134 132 130 128 125 121 117 114 110 108 105 101 97 94 93 90 88 86 88 90 94 100 102 100 96 90 85 80 77 74 71 68 67 69 78 82 86 94
146 151 148 144 140 137 135 134 132 128 124 121 119 116 114 112 109 106 102 99 97 95 91 90 92 96 102 104 101 96 89 83 82 83 82 75 72 70 70 75 79 83 89
146 148 148 146 142 140 139 137 135 132 129 126 124 122 121 119 115 112 109 107 104 101 98 97 97 100 107 109 105 99 90 79 84 87 92 83 78 75 72 72 78 81 83
145 147 150 147 145 143 142 140 139 136 134 132 131 129 127 124 121 117 114 112 110 108 105 102 103 106 112 112 108 100 89 81 85 95 103 93 85 85 81 76 77 84 85
145 148 152 150 149 148 146 145 144 142 139 138 137 135 133 131 128 124 120 116 114 112 110 109 111 118 123 123 117 104 94 89 91 109 111 105 100 103 98 91 82 85 86
146 151 156 155 155 154 153 153 151 148 145 144 144 142 142 141 137 132 127 123 119 118 116 115 120 132 139 138 128 112 101 99 117 133 129 121 124 116 106 100 93 91 89
150 154 159 161 161 161 160 159 157 155 153 152 153 154 153 152 149 144 138 133 129 128 127 125 129 139 146 146 140 127 108 111 139 146 138 135 135 125 119 117 111 105 100
153 156 159 164 167 167 167 166 165 164 162 163 163 162 162 162 159 156 153 150 148 147 147 146 148 155 160 161 153 133 107 110 146 149 147 150 145 136 134 129 119 115 109
157 162 163 167 169 171 173 174 173 172 172 173 172 170 171 170 168 167 166 166 168 170 172 175 181 188 197 204 207 122 89 112 150 150 151 154 147 141 133 124 116 115 116
167 171 171 172 174 175 176 181 180 180 181 181 180 179 178 176 175 177 179 182 185 188 194 202 211 223 241 262 275 297 88 124 151 153 162 158 148 142 136 127 121 118 122
178 182 181 181 181 179 184 184 182 184 185 185 185 184 182 183 186 189 195 195 197 202 209 219 231 242 252 267 280 299 116 155 158 164 173 163 153 147 139 133 128 126 129
183 185 186 187 186 184 187 180 184 185 185 188 190 190 188 191 201 206 201 206 207 211 218 234 246 253 255 258 267 267 189 167 165 171 176 168 161 156 150 146 142 138 141
184 190 189 189 188 189 186 183 185 186 189 194 199 199 194 195 202 196 197 202 206 213 217 228 240 252 257 253 249 237 194 164 169 172 180 174 170 168 164 164 162 159 162
189 192 190 190 191 189 185 186 188 192 195 198 201 204 198 193 191 189 201 206 212 218 219 222 230 240 247 250 236 198 175 172 171 175 183 181 177 179 180 176 176 178 182
191 201 195 192 192 188 187 189 190 193 196 197 201 204 201 198 192 192 200 208 215 220 222 219 221 217 213 192 164 148 156 167 174 178 182 184 184 185 191 192 190 190 194
23 352 210 199 194 191 191 192 190 193 194 197 204 207 206 203 198 196 200 206 214 220 223 215 213 186 177 163 135 136 146 161 175 179 181 183 186 191 196 197 193 192 196
26 18 356 235 204 198 198 197 193 193 194 199 203 206 210 209 201 193 195 201 203 205 198 180 164 146 157 137 136 153 147 156 175 181 182 186 188 193 197 192 185 187 191
28 20 12 1 334 226 211 203 201 194 196 198 199 201 209 209 202 188 189 191 187 179 173 172 151 146 144 146 166 174 180 177 180 182 185 192 194 195 195 195 190 186 185
26 22 18 10 4 339 268 222 209 202 202 197 196 199 199 199 197 184 181 178 169 161 162 155 144 137 143 154 137 106 265 238 203 186 193 195 197 197 199 198 196 194 191
20 18 16 9 2 357 331 246 214 209 206 201 198 194 192 189 185 178 176 169 162 164 166 155 140 137 135 128 94 34 346 323 261 219 191 182 194 199 198 201 201 200 198
13 9 6 1 351 342 321 280 234 217 216 205 196 182 185 181 179 180 170 166 163 155 157 157 145 140 146 139 132 113 345 329 317 298 191 187 196 196 198 204 204 206 203
6 1 357 352 345 334 323 301 263 204 209 205 204 191 184 176 174 170 164 159 162 161 168 170 161 156 166 175 155 148 164 222 292 320 301 210 197 196 200 200 205 208 206
353 350 348 347 344 337 330 312 255 216 209 207 201 190 183 173 167 162 160 161 168 167 166 175 174 169 159 172 181 188 171 157 170 298 320 317 231 209 206 207 207 206 204
345 346 346 346 347 342 337 325 289 243 225 205 183 173 173 160 163 159 156 159 166 167 167 172 166 172 174 173 174 176 170 168 170 179 263 309 327 268 228 218 200 200 203
344 346 345 347 346 345 345 345 331 269 223 189 182 180 171 158 157 153 148 153 161 162 167 170 169 170 179 180 182 179 170 164 184 185 213 240 269 287 269 234 211 200 199
Height
1536 1538 1540 1542 1543 1544 1545 1546 1547 1547 1548 1549 1549 1550 1550 1550 1551 1551 1551 1551 1552 1552 1553 1553 1554 1554 1555 1556 1556 1556 1557 1557 1557 1557 1557 1557 1557 1557 1557 1556 1556 1556 1555
1535 1538 1540 1542 1543 1545 1546 1546 1547 1548 1549 1549 1550 1550 1551 1551 1551 1552 1552 1552 1552 1553 1553 1554 1554 1555 1556 1556 1557 1557 1558 1558 1559 1559 1559 1558 1558 1558 1558 1558 1558 1557 1557
1535 1537 1540 1542 1544 1545 1546 1547 1548 1549 1549 1550 1550 1551 1552 1552 1552 1553 1553 1553 1553 1553 1553 1554 1555 1555 1556 1557 1558 1558 1559 1560 1560 1560 1560 1560 1560 1560 1560 1560 1559 1559 1559
1535 1537 1540 1542 1544 1545 1546 1547 1548 1549 1550 1550 1551 1552 1552 1553 1553 1554 1554 1554 1554 1554 1554 1554 1555 1556 1557 1558 1559 1559 1560 1560 1561 1561 1561 1561 1561 1561 1561 1561 1561 1560 1560
1535 1538 1540 1542 1544 1545 1546 1547 1548 1549 1550 1551 1551 1552 1553 1553 1554 1554 1554 1554 1554 1554 1554 1554 1555 1556 1557 1558 1559 1560 1561 1561 1562 1562 1562 1562 1562 1562 1563 1562 1562 1562 1561
1536 1538 1540 1542 1544 1545 1546 1548 1548 1549 1550 1551 1552 1552 1553 1554 1554 1554 1554 1554 1554 1554 1555 1555 1555 1556 1557 1558 1559 1560 1561 1562 1562 1563 1563 1563 1563 1564 1564 1564 1564 1563 1563
1536 1539 1541 1542 1544 1545 1546 1547 1548 1549 1550 1551 1552 1553 1553 1554 1554 1554 1554 1554 1554 1555 1555 1555 1556 1556 1557 1559 1560 1561 1562 1562 1563 1563 1563 1564 1564 1565 1565 1565 1565 1564 1564
1537 1539 1541 1543 1544 1545 1546 1547 1548 1549 1550 1551 1552 1552 1553 1554 1554 1554 1554 1554 1555 1555 1555 1556 1556 1557 1558 1559 1560 1561 1562 1563 1564 1564 1565 1565 1565 1565 1565 1565 1565 1565 1565
1538 1540 1541 1543 1544 1545 1546 1547 1548 1549 1550 1551 1551 1552 1553 1553 1554 1554 1554 1554 1555 1555 1555 1556 1557 1558 1559 1560 1561 1562 1563 1564 1564 1565 1565 1565 1566 1566 1566 1566 1566 1566 1565
1539 1540 1541 1542 1544 1545 1546 1546 1547 1548 1549 1550 1551 1552 1552 1553 1554 1554 1554 1554 1555 1555 1556 1556 1557 1558 1559 1560 1561 1563 1563 1564 1565 1566 1566 1566 1566 1566 1566 1566 1566 1566 1566
1538 1539 1540 1542 1543 1544 1545 1546 1547 1547 1548 1549 1550 1551 1552 1552 1553 1554 1554 1554 1555 1555 1556 1557 1558 1559 1560 1561 1562 1563 1564 1564 1565 1566 1566 1566 1566 1565 1565 1565 1566 1566 1566
1536 1538 1539 1540 1541 1543 1544 1544 1545 1546 1547 1548 1549 1550 1551 1552 1553 1554 1554 1554 1555 1555 1556 1557 1558 1559 1560 1561 1562 1563 1564 1564 1565 1565 1566 1566 1565 1565 1565 1565 1565 1566 1566
1533 1535 1537 1538 1540 1541 1542 1543 1544 1545 1546 1547 1548 1549 1550 1551 1552 1553 1553 1554 1555 1555 1556 1557 1558 1559 1561 1561 1562 1563 1564 1564 1565 1565 1565 1565 1564 1564 1564 1565 1565 1566 1566
1531 1533 1534 1536 1537 1539 1540 1541 1542 1543 1544 1545 1547 1548 1549 1550 1551 1552 1553 1554 1555 1556 1557 1558 1559 1559 1560 1561 1562 1562 1563 1564 1564 1565 1565 1564 1563 1563 1563 1564 1565 1565 1566
1530 1531 1532 1533 1534 1536 1537 1539 1540 1541 1542 1544 1545 1546 1548 1549 1550 1552 1553 1554 1555 1556 1557 1558 1558 1559 1560 1560 1560 1561 1562 1563 1564 1564 1564 1563 1563 1563 1563 1563 1564 1564 1565
1529 1530 1530 1531 1531 1533 1534 1536 1537 1539 1540 1542 1543 1544 1546 1548 1549 1551 1552 1554 1555 1556 1557 1558 1558 1559 1559 1560 1560 1561 1561 1562 1563 1564 1564 1563 1563 1563 1562 1563 1563 1564 1564
1528 1528 1529 1530 1530 1531 1532 1533 1535 1536 1538 1539 1541 1542 1544 1546 1547 1549 1551 1553 1554 1555 1556 1557 1558 1558 1559 1560 1560 1561 1561 1562 1563 1563 1563 1563 1563 1563 1562 1562 1563 1563 1563
1526 1526 1527 1528 1528 1529 1530 1531 1532 1533 1535 1536 1538 1540 1542 1544 1545 1547 1549 1550 1552 1554 1555 1556 1557 1557 1558 1559 1560 1560 1560 1561 1562 1562 1562 1563 1563 1563 1562 1562 1562 1562 1562
1525 1525 1525 1525 1525 1526 1527 1528 1529 1530 1532 1533 1535 1537 1539 1541 1543 1544 1546 1548 1550 1552 1553 1554 1555 1556 1557 1558 1559 1559 1559 1560 1560 1561 1561 1562 1562 1562 1562 1562 1562 1562 1562
1525 1524 1523 1523 1523 1523 1524 1525 1526 1527 1528 1530 1531 1533 1535 1538 1540 1542 1543 1545 1547 1549 1550 1552 1553 1554 1555 1556 1557 1557 1558 1559 1559 1559 1560 1560 1561 1561 1561 1562 1561 1561 1561
1523 1522 1521 1520 1520 1520 1521 1521 1522 1523 1524 1525 1527 1529 1531 1533 1536 1538 1540 1542 1543 1545 1547 1549 1551 1552 1553 1554 1555 1556 1556 1556 1557 1557 1558 1558 1559 1560 1560 1561 1561 1561 1561
1523 1521 1520 1518 1518 1517 1517 1517 1518 1519 1520 1522 1523 1525 1527 1529 1531 1534 1536 1538 1540 1542 1544 1546 1547 1548 1550 1551 1552 1553 1554 1555 1554 1555 1555 1555 1556 1557 1558 1559 1559 1560 1560
1522 1520 1518 1516 1515 1514 1513 1513 1513 1515 1516 1518 1519 1520 1522 1524 1527 1529 1531 1534 1536 1538 1540 1542 1544 1545 1546 1547 1549 1550 1550 1550 1551 1552 1552 1553 1554 1554 1555 1556 1557 1558 1558
1522 1520 1516 1514 1511 1510 1509 1509 1509 1509 1510 1511 1513 1515 1517 1519 1522 1525 1526 1529 1532 1534 1536 1538 1540 1541 1542 1543 1544 1546 1547 1547 1549 1549 1550 1550 1551 1552 1553 1553 1554 1555 1556
1522 1518 1515 1511 1508 1506 1505 1504 1504 1504 1505 1506 1508 1510 1512 1514 1517 1519 1522 1524 1527 1530 1532 1534 1535 1536 1537 1538 1540 1541 1542 1543 1545 1546 1546 1547 1548 1549 1550 1551 1551 1552 1553
1521 1517 1513 1510 1507 1504 1502 1500 1499 1499 1499 1501 1502 1504 1507 1509 1511 1513 1517 1520 1522 1525 1527 1529 1531 1533 1533 1534 1535 1536 1538 1539 1540 1542 1543 1543 1545 1546 1547 1547 1548 1549 1550